Tracking 17887 objects as of 11-December-2016
HD Live streaming from Space Station
objects crossing your sky now

SL-16 DEB

Track SL-16 DEB now!
10-day predictions


NORAD ID: 20628
Int'l Code: 1990-046E
Perigee: 847.4 km
Apogee: 1,153.6 km
Inclination: 71.0 °
Period: 105.0 minutes
Semi major axis: 7371 km
RCS: 0.0854 m2 (small)
Launch date: May 22, 1990
Source: Commonwealth of Independent States (former USSR) (CIS)
Launch site: TYURATAM MISSILE AND SPACE COMPLEX (TTMTR)

Note: This is SATELLITE DEBRIS
Your satellite tracking list
Your tracking list is empty





NASA's NSSDC Master Catalog

Two Line Element Set (TLE):
1 20628U 90046E   16344.87405465  .00000029  00000-0  66501-4 0  9997
2 20628  70.9761 141.2637 0207683  84.1230 278.3500 13.71733243328943
Source of the keplerian elements: AFSPC